Location: Doux
(49.5045°N, 4.4321°E)
Time: 14:45:24
(UTC+00:00)

Cosmos 1741 Rocket - Pass Details

Date: 23 May 2024
Orbit: 758 x 781 km, 74.0° (Epoch: 18 June)

Event Time Altitude Azimuth Distance (km) Brightness Sun altitude
Exits shadow 01:51:22 20° 200° (SSW) 1,697 5.2 -13.9°
Maximum altitude 01:55:01 87° 112° (ESE) 775 4.0 -13.6°
Drops below altitude 10° 02:00:18 10° 24° (NNE) 2,324 7.9 -13.2°
Sets 02:02:42 0° 24° (NNE) 3,259 9.1 -12.9°
